| time (UTC) | temp F | wind direction | speed MPH | gust MPH | rain 1hr in | rain 24hr in | rain mn in | humidity % | barometer mb |
| 20260831053236 | 61 | 0.0 | 0.0 | 0.00 | 0.00 | 0.00 | 87 | 991.6 | |
| 20260831051701 | 59 | 0.0 | 0.0 | 0.00 | 0.00 | 0.00 | 89 | 991.4 | |
| 20260831050126 | 58 | 0.0 | 0.0 | 0.00 | 0.00 | 0.00 | 90 | 991.2 | |
| 20260831044551 | 57 | 0.0 | 0.0 | 0.00 | 0.00 | 0.00 | 90 | 991.0 | |
| 20260831043016 | 57 | 0.0 | 0.0 | 0.00 | 0.00 | 0.00 | 90 | 991.0 | |
| 20260831041441 | 56 | 0.0 | 0.0 | 0.00 | 0.00 | 0.00 | 90 | 991.1 | |
| 20260831035906 | 57 | 0.0 | 0.0 | 0.00 | 0.00 | 0.00 | 88 | 990.8 | |
| 20260831034332 | 58 | 0.0 | 0.0 | 0.00 | 0.00 | 0.00 | 88 | 990.5 | |
| 20260831032757 | 58 | 0.0 | 0.0 | 0.00 | 0.00 | 0.00 | 87 | 990.7 | |
| 20260831031222 | 58 | 0.0 | 0.0 | 0.00 | 0.00 | 0.00 | 87 | 991.0 | |
| 20260831025647 | 58 | 0.0 | 0.0 | 0.00 | 0.00 | 0.00 | 86 | 991.1 | |
| 20260831024112 | 58 | 0.0 | 0.0 | 0.00 | 0.00 | 0.00 | 85 | 991.1 | |
| 20260831022537 | 58 | 0.0 | 0.0 | 0.00 | 0.00 | 0.00 | 85 | 991.0 | |
| 20260831021002 | 58 | 0.0 | 0.0 | 0.00 | 0.00 | 0.00 | 85 | 991.0 | |
| 20260831015427 | 58 | 0.0 | 0.0 | 0.00 | 0.00 | 0.00 | 84 | 991.3 | |
| 20260831013852 | 58 | 0.0 | 0.0 | 0.00 | 0.00 | 0.00 | 84 | 991.6 | |
| 20260831012317 | 58 | 0.0 | 0.0 | 0.00 | 0.00 | 0.00 | 84 | 991.6 | |
| 20260831010742 | 58 | 0.0 | 0.0 | 0.00 | 0.00 | 0.00 | 83 | 991.7 | |
| 20260831005207 | 57 | 0.0 | 0.0 | 0.00 | 0.00 | 0.00 | 84 | 991.8 | |
| 20260831003633 | 57 | 0.0 | 0.0 | 0.00 | 0.00 | 0.00 | 83 | 991.7 | |
| 20260831002058 | 57 | 0.0 | 0.0 | 0.00 | 0.00 | 0.00 | 82 | 991.9 | |
| 20260831000523 | 57 | 0.0 | 0.0 | 0.00 | 0.00 | 0.00 | 81 | 991.7 | |
| 20260830234948 | 57 | 0.0 | 0.0 | 0.00 | 0.00 | 0.00 | 81 | 991.9 | |
| 20260830233413 | 57 | 0.0 | 0.0 | 0.00 | 0.00 | 0.00 | 80 | 992.0 | |
| 20260830231838 | 57 | 0.0 | 0.0 | 0.00 | 0.00 | 0.00 | 79 | 992.2 | |
| 20260830230303 | 58 | 0.0 | 0.0 | 0.00 | 0.00 | 0.00 | 79 | 992.2 | |
| 20260830224728 | 58 | 0.0 | 0.0 | 0.00 | 0.00 | 0.00 | 78 | 992.4 | |
| 20260830223153 | 58 | 0.0 | 0.0 | 0.00 | 0.00 | 0.00 | 77 | 992.6 | |
| 20260830221618 | 59 | 0.0 | 0.0 | 0.00 | 0.00 | 0.00 | 76 | 992.7 | |
| 20260830214508 | 59 | 0.0 | 0.0 | 0.00 | 0.00 | 0.00 | 74 | 992.7 | |
| 20260830212934 | 59 | 0.0 | 0.0 | 0.00 | 0.00 | 0.00 | 73 | 992.7 | |
| 20260830211359 | 60 | 0.0 | 0.0 | 0.00 | 0.00 | 0.00 | 72 | 992.7 | |
| 20260830205824 | 60 | 0.0 | 0.0 | 0.00 | 0.00 | 0.00 | 70 | 992.7 | |
| 20260830204249 | 61 | 0.0 | 0.0 | 0.00 | 0.00 | 0.00 | 69 | 992.7 | |
| 20260830202714 | 61 | 0.0 | 0.0 | 0.00 | 0.00 | 0.00 | 68 | 992.8 | |
| 20260830201139 | 61 | 0.0 | 0.0 | 0.00 | 0.00 | 0.00 | 67 | 992.9 | |
| 20260830195604 | 61 | 0.0 | 0.0 | 0.00 | 0.00 | 0.00 | 66 | 992.9 | |
| 20260830194029 | 63 | 0.0 | 0.0 | 0.00 | 0.00 | 0.00 | 64 | 992.9 | |
| 20260830192454 | 63 | 0.0 | 0.0 | 0.00 | 0.00 | 0.00 | 63 | 993.0 | |
| 20260830190919 | 64 | 0.0 | 0.0 | 0.00 | 0.00 | 0.00 | 61 | 992.9 | |
| 20260830185344 | 65 | 0.0 | 0.0 | 0.00 | 0.00 | 0.00 | 60 | 992.8 | |
| 20260830183810 | 66 | 0.0 | 0.0 | 0.00 | 0.00 | 0.00 | 58 | 992.7 | |
| 20260830182235 | 67 | 0.0 | 0.0 | 0.00 | 0.00 | 0.00 | 57 | 992.6 | |
| 20260830180700 | 68 | 0.0 | 0.0 | 0.00 | 0.00 | 0.00 | 56 | 992.5 | |
| 20260830175125 | 69 | 0.0 | 0.0 | 0.00 | 0.00 | 0.00 | 54 | 992.3 | |
| 20260830173550 | 71 | 0.0 | 0.0 | 0.00 | 0.00 | 0.00 | 53 | 992.2 | |
| 20260830172015 | 73 | 0.0 | 0.0 | 0.00 | 0.00 | 0.00 | 51 | 992.2 | |
| 20260830170440 | 74 | 0.0 | 0.0 | 0.00 | 0.00 | 0.00 | 50 | 992.2 | |
| 20260830164905 | 76 | 0.0 | 0.0 | 0.00 | 0.00 | 0.00 | 48 | 992.2 | |
| 20260830163330 | 77 | 0.0 | 0.0 | 0.00 | 0.00 | 0.00 | 47 | 992.2 | |
| 20260830161755 | 78 | 0.0 | 0.0 | 0.00 | 0.00 | 0.00 | 46 | 992.3 | |
| 20260830160220 | 79 | 0.0 | 0.0 | 0.00 | 0.00 | 0.00 | 46 | 992.2 | |
| 20260830154645 | 79 | 0.0 | 0.0 | 0.00 | 0.00 | 0.00 | 46 | 992.2 | |
| 20260830153111 | 80 | 0.0 | 0.0 | 0.00 | 0.00 | 0.00 | 46 | 992.4 | |
| 20260830151536 | 80 | 0.0 | 0.0 | 0.00 | 0.00 | 0.00 | 47 | 992.3 | |
| 20260830150001 | 80 | 0.0 | 0.0 | 0.00 | 0.00 | 0.00 | 47 | 992.4 | |
| 20260830144426 | 81 | 0.0 | 0.0 | 0.00 | 0.00 | 0.00 | 46 | 992.5 | |
| 20260830142851 | 80 | 0.0 | 0.0 | 0.00 | 0.00 | 0.00 | 47 | 992.4 | |
| 20260830141316 | 77 | 0.0 | 0.0 | 0.00 | 0.00 | 0.00 | 49 | 992.4 | |
| 20260830135741 | 79 | 0.0 | 0.0 | 0.00 | 0.00 | 0.00 | 47 | 992.5 | |
| 20260830134206 | 77 | 0.0 | 0.0 | 0.00 | 0.00 | 0.00 | 48 | 992.5 | |
| 20260830132631 | 81 | 0.0 | 0.0 | 0.00 | 0.00 | 0.00 | 46 | 992.3 | |
| 20260830131056 | 82 | 0.0 | 0.0 | 0.00 | 0.00 | 0.00 | 45 | 992.3 | |
| 20260830125521 | 81 | 0.0 | 0.0 | 0.00 | 0.00 | 0.00 | 45 | 992.2 | |
| 20260830123947 | 80 | 0.0 | 0.0 | 0.00 | 0.00 | 0.00 | 47 | 992.0 | |
| 20260830122412 | 83 | 0.0 | 0.0 | 0.00 | 0.00 | 0.00 | 46 | 991.9 | |
| 20260830120837 | 82 | 0.0 | 0.0 | 0.00 | 0.00 | 0.00 | 47 | 991.8 | |
| 20260830115305 | 79 | 0.0 | 0.0 | 0.00 | 0.00 | 0.00 | 48 | 991.8 | |
| 20260830113727 | 76 | 0.0 | 0.0 | 0.00 | 0.00 | 0.00 | 51 | 991.9 | |
| 20260830112152 | 74 | 0.0 | 0.0 | 0.00 | 0.00 | 0.00 | 52 | 991.8 | |
| 20260830110617 | 77 | 0.0 | 0.0 | 0.00 | 0.00 | 0.00 | 51 | 991.5 | |
| 20260830103507 | 78 | 0.0 | 0.0 | 0.00 | 0.00 | 0.00 | 49 | 991.6 | |
| 20260830101932 | 78 | 0.0 | 0.0 | 0.00 | 0.00 | 0.00 | 50 | 991.5 | |
| 20260830100357 | 79 | 0.0 | 0.0 | 0.00 | 0.00 | 0.00 | 49 | 991.5 | |
| 20260830094822 | 79 | 0.0 | 0.0 | 0.00 | 0.00 | 0.00 | 50 | 991.4 | |
| 20260830093248 | 78 | 0.0 | 0.0 | 0.00 | 0.00 | 0.00 | 52 | 991.4 | |
| 20260830091713 | 78 | 0.0 | 0.0 | 0.00 | 0.00 | 0.00 | 53 | 991.2 | |
| 20260830090138 | 77 | 0.0 | 0.0 | 0.00 | 0.00 | 0.00 | 55 | 991.2 | |
| 20260830084603 | 75 | 0.0 | 0.0 | 0.00 | 0.00 | 0.00 | 60 | 991.1 | |
| 20260830081453 | 72 | 0.0 | 0.0 | 0.00 | 0.00 | 0.00 | 66 | 991.1 | |
| 20260830075918 | 71 | 0.0 | 0.0 | 0.00 | 0.00 | 0.00 | 70 | 991.0 | |
| 20260830074343 | 70 | 0.0 | 0.0 | 0.00 | 0.00 | 0.00 | 74 | 990.6 | |
| 20260830072808 | 69 | 0.0 | 0.0 | 0.00 | 0.00 | 0.00 | 75 | 990.5 | |
| 20260830071233 | 69 | 0.0 | 0.0 | 0.00 | 0.00 | 0.00 | 76 | 990.5 | |
| 20260830065658 | 69 | 0.0 | 0.0 | 0.00 | 0.00 | 0.00 | 78 | 990.2 | |
| 20260830064123 | 68 | 0.0 | 0.0 | 0.00 | 0.00 | 0.00 | 79 | 990.0 | |
| 20260830062549 | 68 | 0.0 | 0.0 | 0.00 | 0.00 | 0.00 | 80 | 990.1 | |
| 20260830061014 | 67 | 0.0 | 0.0 | 0.00 | 0.00 | 0.00 | 81 | 989.9 | |
| 20260830055439 | 67 | 0.0 | 0.0 | 0.00 | 0.00 | 0.00 | 82 | 989.9 |